{"data":{"norad_id":68605,"epoch":"2026-09-20T00:39:10.711584Z","epoch_age_seconds":84829,"freshness":"FRESH","line1":"1 68605U 26073D   26263.02720731  .00012037  00000+0  37451-3 0  9999","line2":"2 68605  97.2847 100.9781 0002184  99.2716 260.8774 15.33448416 25661","mean_motion":15.33448416,"eccentricity":0.0002184,"inclination_deg":97.2847,"raan_deg":100.9781,"arg_perigee_deg":99.2716,"mean_anomaly_deg":260.8774,"bstar":0.00037451,"rev_number":2566,"period_min":93.905995465843,"perigee_km":464.03835335398,"apogee_km":467.02766841474,"semimajor_km":6843.6700108844,"source":"CELESTRAK","updated_at":"2026-09-20T09:00:43.941692Z"}}